Preview of NWS' New Version of Forecast
This preview is not operational and should not be used for support decisions.

Regional Weather Roundup (RWR)

Issued by National Weather Service (NWS)

                            
000
ASUS43 KBIS 181110
RWRND 

NORTH DAKOTA REGIONAL WEATHER ROUNDUP
NATIONAL WEATHER SERVICE BISMARCK ND
600 AM CDT SUN AUG 18 2019

NOTE: "FAIR" INDICATES FEW OR NO CLOUDS BELOW 12,000 FEET WITH NO
SIGNIFICANT WEATHER AND/OR OBSTRUCTIONS TO VISIBILITY.


NDZ001>003-009>011-017-181200-
NORTHWEST NORTH DAKOTA
  
CITY           SKY/WX    TMP DP  RH WIND       PRES   REMARKS
WILLISTON      CLEAR     48  45  89 SW12      29.85S                  
MINOT          CLEAR     51  45  79 SW12      29.80S                  
MINOT AFB      CLEAR     50  45  85 SW9       29.79R                  
$$
 
NDZ018>021-031>035-040>046-181200-
SOUTHWEST NORTH DAKOTA
  
CITY           SKY/WX    TMP DP  RH WIND       PRES   REMARKS
BISMARCK       MOCLDY    48  46  93 W3        29.88S                  
DICKINSON      MOCLDY    44  42  93 W7        29.88S                  
GARRISON         N/A     48  45  89 W8        29.84S                  
HETTINGER ARPT MOCLDY    44  42  93 NW6       29.93R                  
$$
 
NDZ004>008-012>016-024-026-027-054-181200-
NORTHEAST NORTH DAKOTA
  
CITY           SKY/WX    TMP DP  RH WIND       PRES   REMARKS
GRAND FORKS    CLEAR     49  44  83 W6        29.75R                  
GRND FRKS AFB  CLEAR     49  46  89 NW7       29.76R                  
DEVILS LAKE    CLEAR     48  45  89 W8        29.79S                  
$$
 
NDZ022-023-025-028>030-036>039-047>053-181200-
SOUTHEAST NORTH DAKOTA
  
CITY           SKY/WX    TMP DP  RH WIND       PRES   REMARKS
FARGO          CLEAR     54  51  90 NW7       29.77R                  
JAMESTOWN      CLEAR     50  48  93 W7        29.81S                  
$$